Location: Heilbronn
(49.1548°N, 9.2780°E)
Time: 14:28:10
(UTC+01:00)

ISS - Pass Details

Date: 08 January 2018
Orbit: 402 x 406 km, 51.6° (Epoch: 16 January)

Event Time Altitude Azimuth Distance (km) Brightness Sun altitude
Exits shadow 05:07:49 13° 71° (ENE) 1,285 -0.5 -29.8°
Drops below altitude 10° 05:08:16 10° 73° (ENE) 1,467 -0.2 -29.8°
Sets 05:10:23 0° 78° (ENE) 2,329 1.2 -29.4°
